Theta_e
298 290 288 289 293 293 294 295 294 293 292 290 288 288 286 285 287 291 293 292 293 288 286 287 287 287 288 289 291 293 294 294 294 294 295 295 296 296 296 297 297 298 298 302 304 305 305 306 305 307 306 306 305 305 305 305 304 305 305 304 304 305 312 317 316 315 312 310 308 308 309 309 310 310 310 310 310 310 310 309 309 309 309 308 308 307
296 289 289 295 296 296 293 294 292 292 292 290 287 286 285 287 285 291 292 292 292 287 284 287 287 287 288 290 292 294 293 292 294 294 294 295 296 296 297 297 297 298 301 302 300 302 302 301 304 304 304 305 303 303 304 304 304 305 305 304 304 304 306 316 315 314 313 312 310 308 308 308 309 308 308 308 308 308 308 308 308 308 308 308 307 306
289 286 293 295 296 295 295 294 294 291 291 290 286 284 283 284 286 291 291 292 292 289 285 287 285 286 288 290 292 293 293 294 295 295 295 295 295 295 297 296 297 297 297 297 298 299 298 299 301 300 300 300 300 301 304 304 304 304 304 305 304 304 306 314 315 314 312 312 311 310 308 308 307 306 309 309 308 307 307 307 307 307 307 307 306 305
287 293 295 296 295 292 292 293 290 290 286 285 284 283 282 287 283 280 289 289 292 289 285 286 285 287 289 291 292 294 295 295 297 298 297 297 294 294 295 295 296 296 296 295 294 294 296 297 298 299 299 300 300 301 301 301 303 304 304 305 305 304 309 312 313 313 313 312 311 310 308 306 305 304 304 305 306 305 305 305 305 305 306 305 304 304
289 296 296 296 294 295 292 291 290 287 285 287 287 285 284 284 285 284 284 289 290 290 290 288 285 284 287 288 291 294 295 296 297 297 297 297 298 297 298 297 298 296 295 293 293 294 296 297 297 298 299 299 299 300 300 301 302 305 305 305 305 309 310 311 311 311 311 309 306 305 303 303 302 302 303 303 303 304 304 303 303 303 304 304 303 303
292 295 296 293 292 292 291 288 288 288 281 284 289 288 289 287 285 286 287 286 281 280 285 285 276 278 288 289 288 292 291 291 294 294 294 295 296 297 296 296 296 296 294 293 294 295 296 296 297 297 298 298 299 299 300 301 303 304 305 305 306 311 311 310 310 310 308 306 303 302 300 298 299 298 299 301 301 301 301 301 302 302 302 302 302 302
292 291 292 292 291 288 289 285 287 289 283 280 283 287 289 287 286 286 285 283 277 275 282 288 275 273 282 285 288 290 290 291 293 293 294 294 295 296 295 294 293 292 292 294 295 295 295 295 295 296 297 298 299 299 300 302 304 305 305 307 307 311 311 310 310 309 307 304 304 304 303 302 300 299 300 303 303 303 302 302 300 300 300 300 300 300
291 290 289 292 291 287 284 282 287 288 282 280 288 290 287 287 285 284 284 281 279 284 286 286 281 274 277 283 288 290 289 288 290 291 292 294 294 293 293 293 292 291 293 295 295 295 295 295 296 296 297 298 299 299 300 302 305 305 305 307 308 309 309 310 309 308 307 304 304 304 304 303 302 301 301 302 302 302 301 300 299 298 298 298 298 298
292 287 288 286 286 284 284 285 290 290 285 286 289 289 286 286 286 284 281 278 280 278 276 280 283 276 276 283 288 289 286 286 288 290 291 293 293 292 293 292 291 293 295 294 293 294 295 296 297 299 298 299 300 300 301 303 304 305 306 307 308 309 309 309 308 306 306 305 305 305 304 303 303 303 302 301 300 299 299 298 298 297 297 297 297 298
291 290 287 286 284 284 283 288 289 290 284 291 291 291 290 288 286 284 280 278 277 275 273 277 281 273 275 281 283 287 285 285 288 288 291 292 292 292 292 291 292 294 294 294 294 295 296 298 299 300 300 300 301 302 303 304 304 305 306 306 307 308 308 308 306 306 305 305 305 304 304 303 302 301 300 299 298 298 298 297 296 296 296 296 296 296
290 290 288 284 282 284 284 288 288 291 291 291 290 286 286 286 283 282 280 279 277 273 276 278 279 276 273 280 281 283 285 286 286 288 291 292 291 291 290 290 293 293 293 293 295 297 298 299 299 299 298 299 301 303 303 303 303 304 305 306 306 307 307 307 306 305 304 305 305 304 304 303 301 300 299 297 296 297 297 296 296 295 295 295 295 295
289 286 284 285 292 289 290 289 291 291 291 288 281 282 282 281 280 278 279 277 273 273 276 277 279 279 271 276 284 285 287 287 288 288 289 289 289 290 289 291 293 293 293 294 294 296 298 298 298 299 299 300 302 303 302 303 304 304 304 305 305 305 305 305 305 305 304 304 304 304 304 302 301 300 298 297 296 296 296 296 295 295 295 295 295 295
285 284 286 287 291 291 287 286 288 289 288 285 283 282 277 276 278 275 275 272 273 275 276 274 275 273 275 280 285 288 288 288 291 291 290 290 289 289 289 291 293 293 293 294 295 296 297 297 298 299 300 301 300 301 302 303 303 304 304 305 302 303 304 305 305 304 304 304 304 304 303 303 301 300 299 298 297 297 297 296 295 294 294 294 294 294
283 280 287 286 287 290 290 283 283 281 284 284 281 280 278 274 273 270 274 277 278 275 273 274 276 273 280 283 288 288 289 290 290 291 291 290 290 289 289 291 292 292 293 294 296 297 296 297 299 300 300 300 300 302 303 303 303 303 304 303 302 303 304 304 304 304 304 304 304 304 304 303 301 300 300 299 298 298 297 297 296 295 294 294 294 294
281 282 282 285 282 290 289 290 287 284 283 283 283 281 279 276 273 269 274 272 272 275 275 273 271 272 275 282 289 288 289 290 291 291 291 291 290 289 290 292 291 292 293 295 294 295 296 297 299 300 301 301 302 302 303 303 302 302 301 302 302 302 303 304 304 304 304 305 305 304 304 302 301 300 300 300 299 299 298 297 296 296 296 295 295 295
282 282 286 288 289 288 287 292 291 286 282 284 284 283 277 277 281 275 277 275 273 272 273 270 273 279 280 287 288 288 288 289 290 290 291 289 289 289 289 291 291 292 294 296 295 296 297 298 299 300 301 302 301 302 303 303 302 301 301 301 302 302 303 303 303 303 304 305 306 304 302 302 301 301 300 299 299 299 298 297 297 296 296 296 296 296
282 279 285 289 290 288 288 290 290 289 280 283 283 278 281 282 280 276 277 277 275 272 271 276 278 281 286 288 288 288 287 288 289 288 287 287 288 288 288 291 290 292 295 295 295 297 298 299 300 300 301 301 301 302 302 302 302 302 301 301 301 302 302 302 302 303 304 304 303 303 302 301 301 301 300 299 298 298 298 298 297 297 297 297 296 296
283 281 285 284 284 286 289 289 288 290 288 282 278 280 284 284 281 278 273 274 274 271 273 277 276 279 277 277 285 286 284 286 288 286 287 286 286 286 288 291 290 292 295 295 295 297 298 299 299 300 300 301 300 301 301 301 302 301 301 301 301 301 301 302 302 303 303 303 301 301 301 301 301 301 300 299 298 298 297 297 297 297 296 296 296 296
285 279 282 284 286 287 288 289 288 288 290 284 282 286 280 278 276 279 275 270 270 270 273 275 278 277 278 280 283 281 283 284 284 285 285 284 285 285 287 291 290 293 294 293 294 296 297 298 299 299 300 300 300 301 301 300 300 300 300 300 301 300 300 301 301 302 302 303 301 301 301 301 301 300 299 299 298 298 297 297 297 296 296 296 296 295
288 282 280 281 284 286 285 285 279 281 286 287 287 284 282 279 278 275 276 274 275 271 273 272 276 277 280 282 285 283 285 283 283 284 283 281 284 284 287 291 290 291 292 293 293 295 297 298 299 299 299 299 300 300 300 300 300 299 299 299 299 299 300 300 300 300 299 300 300 299 300 300 300 299 299 298 297 297 297 297 297 296 296 296 295 295
283 285 279 279 284 285 279 283 281 282 279 279 280 278 279 280 280 279 277 275 273 271 272 271 273 278 283 286 285 283 283 284 284 283 282 282 284 285 288 291 291 292 292 292 294 296 297 298 299 299 300 300 300 300 300 299 299 298 299 298 298 298 298 299 299 300 299 299 298 298 298 298 298 298 298 298 297 297 297 297 296 297 296 296 295 295
285 283 281 278 279 277 281 283 283 283 283 282 281 280 281 278 275 272 274 275 274 273 272 272 273 280 287 292 290 288 286 286 284 284 283 281 283 285 288 292 291 292 292 293 294 296 297 298 299 300 300 300 299 299 299 299 299 298 298 298 298 298 298 298 299 299 299 298 298 298 298 298 298 298 298 297 297 296 296 296 297 296 296 295 295 295
286 285 283 277 280 281 282 281 282 282 281 282 282 281 284 281 279 276 271 273 272 274 273 274 270 278 288 288 288 288 288 286 286 286 284 282 283 285 288 292 292 293 292 293 294 295 295 297 299 299 299 299 299 298 298 298 298 298 297 298 298 298 298 299 299 299 299 298 298 298 298 297 297 297 297 296 296 296 296 296 296 296 295 295 295 295
289 283 280 281 277 278 279 280 281 280 281 282 281 281 282 282 282 279 277 276 274 273 272 274 271 279 287 289 288 289 288 287 287 286 285 283 283 286 287 292 292 292 293 293 293 296 297 298 299 299 299 299 298 298 298 298 298 298 297 298 298 297 298 298 299 299 298 298 297 297 297 297 297 297 296 296 296 296 296 296 295 295 295 295 295 294
283 284 283 279 279 279 279 278 280 280 281 279 279 281 282 279 277 276 275 276 273 275 276 274 272 279 288 289 288 287 285 287 287 287 286 283 284 286 287 290 293 293 293 293 293 294 297 298 298 299 299 299 299 298 298 298 298 298 298 298 298 298 298 298 298 298 298 298 297 297 297 296 296 296 296 296 296 296 296 296 295 295 295 294 294 294
284 282 283 278 276 274 274 274 277 278 277 279 281 281 282 281 278 277 273 274 272 273 277 272 275 283 287 287 288 287 286 286 288 288 287 286 285 287 288 290 293 293 293 293 293 293 293 295 298 299 299 299 299 299 298 298 298 298 298 298 298 298 298 298 298 298 298 298 297 296 296 296 296 296 296 296 296 296 296 295 295 294 294 294 294 294
282 282 283 283 282 280 281 281 282 282 278 277 278 281 281 282 280 280 278 274 274 274 276 279 280 282 284 286 286 287 288 287 287 287 286 286 286 287 288 289 291 293 293 293 293 293 292 292 295 298 299 299 299 299 298 298 298 298 298 298 298 298 298 298 299 298 298 297 297 296 296 296 296 296 296 296 296 296 295 295 295 294 294 294 294 293
282 279 281 281 282 282 282 281 282 283 278 279 279 279 281 281 279 279 278 276 279 276 276 281 281 279 283 286 287 288 288 286 288 287 287 287 287 287 288 288 291 292 293 293 293 293 293 292 293 296 298 299 299 299 299 299 299 299 298 297 298 298 298 299 299 298 298 298 297 297 296 296 297 297 297 297 296 296 296 295 295 294 294 294 293 293
280 277 279 280 281 282 282 281 281 282 280 281 280 280 279 280 279 277 278 280 280 278 278 281 279 280 284 286 288 289 289 289 287 287 288 288 288 288 288 287 288 290 293 293 293 293 293 293 293 296 298 299 298 298 299 299 299 299 299 299 298 298 298 299 299 298 298 297 297 297 297 297 297 297 297 297 297 296 296 295 295 294 294 293 293 293
280 279 279 279 278 278 279 281 280 278 277 278 280 281 281 280 279 279 279 280 281 280 282 283 282 282 285 287 288 289 290 288 288 288 287 286 286 287 287 287 287 288 291 293 293 293 293 293 294 295 297 298 298 298 298 299 299 299 298 298 299 299 299 299 298 298 297 297 297 297 297 297 297 297 297 296 296 296 295 295 294 294 293 293 293 292
281 277 281 277 275 276 278 279 279 279 277 277 278 280 281 281 280 280 279 279 279 279 281 281 280 280 286 288 288 290 289 288 287 287 287 287 287 287 286 286 287 287 289 292 294 294 294 293 294 294 295 298 298 298 298 299 299 299 298 299 299 299 299 299 298 298 297 297 297 297 297 297 297 297 296 296 296 296 295 295 294 293 292 292 292 291
280 276 276 278 274 276 277 277 276 276 274 274 275 278 279 279 277 279 278 280 279 278 280 277 276 279 285 288 286 287 287 287 286 287 287 287 287 287 286 286 287 287 288 291 294 294 294 294 293 294 294 296 298 299 299 299 299 298 298 299 299 299 299 298 298 298 297 298 298 297 297 296 296 296 296 296 296 295 294 293 293 292 292 292 291 291
279 278 276 276 274 275 274 276 273 271 273 274 274 276 279 281 282 282 282 282 282 283 279 277 279 285 287 287 286 286 286 286 286 287 286 286 286 286 286 287 287 287 288 291 294 295 295 295 294 294 294 295 296 298 299 300 299 298 298 298 298 298 298 297 297 298 298 297 297 297 297 296 295 295 295 295 295 294 294 293 293 292 291 291 291 290
278 278 276 278 273 274 271 272 273 272 271 273 282 282 282 280 281 280 281 282 283 283 282 284 285 287 286 286 286 287 286 287 288 289 289 288 287 286 286 287 287 288 289 291 293 295 296 296 295 295 295 295 295 296 298 299 299 299 299 298 297 297 298 298 298 298 297 297 297 297 296 296 296 295 295 295 295 294 293 293 292 292 292 291 290 290
279 280 277 279 275 274 271 273 273 270 273 282 281 283 284 284 284 283 283 284 284 284 284 284 284 285 287 288 288 289 288 288 288 288 288 288 288 287 287 287 287 288 289 290 292 294 296 296 295 295 295 294 294 296 297 297 297 297 297 297 297 297 298 298 297 297 297 296 297 297 296 296 296 295 295 296 295 294 293 293 292 292 292 291 290 290
279 279 278 277 277 277 271 273 268 272 278 280 279 279 282 282 283 282 281 284 285 284 285 284 286 287 288 288 289 289 289 286 284 284 285 287 288 288 287 287 288 288 288 290 292 294 296 296 296 295 295 296 296 297 297 297 297 297 297 297 297 297 297 297 297 297 296 296 296 296 296 296 296 295 295 295 294 294 293 293 292 292 292 291 291 291
282 281 280 275 279 273 273 273 275 280 280 281 278 279 281 281 281 281 278 282 286 286 285 285 286 287 287 288 289 286 282 283 283 287 287 286 287 287 289 289 289 289 289 290 292 294 297 298 297 296 296 297 297 297 297 298 297 297 297 297 297 297 296 296 296 296 296 296 296 296 296 296 296 295 295 295 294 293 293 293 292 292 292 291 291 291
284 281 280 278 275 279 275 274 272 273 272 277 283 283 285 285 285 286 283 283 288 287 288 287 286 287 287 287 284 282 282 282 282 286 289 288 288 287 287 287 288 289 289 289 292 293 295 296 296 296 297 297 297 298 298 298 298 297 297 297 297 296 296 296 296 296 296 296 296 296 297 296 296 295 295 294 294 293 293 293 293 293 292 292 291 290
278 279 282 280 277 276 275 273 272 271 275 280 282 285 285 285 285 284 282 280 284 286 288 288 287 287 287 285 282 283 282 280 283 287 287 288 288 288 287 287 287 288 288 289 291 292 293 295 295 295 294 294 295 297 298 298 298 297 296 296 296 296 295 295 296 296 296 296 297 297 297 297 296 296 295 294 294 294 293 293 293 293 292 292 292 292
277 277 277 277 276 277 275 273 273 275 276 280 281 280 281 285 288 285 275 277 286 288 289 288 287 287 287 284 283 284 283 281 283 288 288 288 288 288 287 286 286 286 286 287 289 292 293 293 293 293 293 293 296 296 297 298 298 297 296 296 296 295 295 295 296 297 297 297 297 297 297 297 296 296 295 295 294 294 294 294 293 293 292 293 293 292
275 274 278 276 277 278 279 275 276 278 282 281 279 279 280 287 286 279 277 284 288 287 287 288 288 289 286 284 284 283 285 289 287 288 285 285 285 285 285 286 287 287 287 288 289 289 291 292 294 295 294 295 295 295 295 297 297 296 296 296 296 295 296 297 297 297 297 297 297 296 296 297 296 295 295 295 295 295 293 294 294 293 292 292 293 292
275 276 275 276 276 275 276 275 275 279 283 281 279 282 285 286 277 279 286 288 287 286 285 288 288 287 286 286 285 288 288 285 281 284 283 284 286 286 285 285 284 283 284 286 287 289 290 290 290 291 291 292 294 294 295 296 296 295 296 296 295 296 297 297 298 297 297 297 297 296 296 296 296 295 295 295 295 293 293 294 294 293 293 291 291 291
276 275 273 275 275 275 275 274 273 272 281 285 281 280 283 284 285 286 286 288 286 285 286 286 287 286 287 286 286 287 283 281 282 282 282 282 283 284 284 284 285 284 284 284 285 286 289 289 289 290 292 292 293 294 295 295 294 294 294 295 296 297 297 298 298 297 297 297 296 295 295 295 293 294 295 294 294 293 292 292 293 292 292 291 291 291
282 276 275 277 280 274 275 273 274 279 281 285 285 283 284 288 289 287 289 286 285 285 285 285 285 286 287 288 286 285 282 282 280 281 281 281 281 281 282 283 283 283 283 283 285 285 287 288 289 289 289 291 292 293 293 295 294 293 292 294 296 294 294 295 296 296 296 294 295 294 293 293 292 294 294 293 292 292 292 291 292 291 292 291 290 290
282 280 282 277 282 279 278 280 283 281 285 286 289 287 289 289 289 287 288 288 286 285 284 285 286 285 286 286 285 285 283 282 282 282 283 283 282 282 282 282 283 283 283 282 282 283 284 286 287 288 288 290 291 292 293 294 293 291 291 293 294 293 293 293 293 293 293 293 292 292 292 292 292 292 292 292 291 291 291 290 290 290 290 290 290 290
283 286 284 282 282 285 286 285 283 281 282 285 287 290 288 288 288 287 286 287 286 287 286 287 284 285 285 284 285 282 285 283 282 281 280 282 283 282 281 281 280 281 281 281 281 282 283 283 284 286 287 288 290 291 292 293 293 291 292 293 293 293 293 291 291 291 291 291 291 291 290 290 290 290 290 290 291 291 291 290 290 290 290 290 290 290
281 282 284 282 282 281 278 285 284 283 281 284 287 288 288 287 289 287 287 287 288 287 285 285 286 285 285 285 286 286 285 283 282 282 281 282 282 282 282 282 282 282 282 281 281 282 282 282 283 284 286 286 289 291 291 291 293 293 292 293 293 293 292 290 290 290 290 290 290 289 289 289 289 290 289 289 290 290 290 290 290 290 289 289 289 289
281 285 283 283 283 281 282 284 285 287 284 285 287 287 288 289 289 287 289 290 289 287 286 285 284 285 283 284 285 284 284 283 283 282 282 282 282 282 282 282 282 281 281 282 281 282 282 282 283 283 284 285 287 290 291 291 292 292 292 293 292 291 291 290 289 289 289 289 289 290 289 289 288 289 290 289 290 290 290 290 290 290 290 290 290 290
283 285 280 283 282 284 285 286 285 283 285 285 285 285 287 288 290 290 288 287 286 286 285 283 283 284 283 285 283 284 283 284 284 284 283 283 282 282 282 282 282 282 281 281 281 282 282 282 282 283 284 284 284 286 289 290 291 292 291 291 291 291 290 290 289 289 289 289 289 289 289 289 289 289 289 289 289 290 291 290 290 291 291 291 292 291
283 281 284 283 280 280 281 284 283 281 280 283 285 287 289 290 289 289 287 286 285 285 285 285 283 281 282 283 283 284 284 284 283 283 283 283 283 283 282 282 282 281 281 282 282 282 282 282 283 282 283 283 282 283 286 289 290 291 292 291 290 290 290 289 289 289 289 289 289 289 289 289 289 289 289 289 289 289 289 289 289 290 291 290 289 289
285 285 284 281 280 281 286 287 287 288 288 287 288 289 290 290 289 289 288 287 286 287 287 286 285 281 281 282 283 283 284 285 284 283 283 283 284 284 284 283 282 281 282 281 281 281 281 281 282 282 282 283 282 282 284 285 288 290 291 291 290 290 290 289 289 289 289 289 289 289 289 289 289 289 289 289 289 289 289 289 288 289 289 289 288 288
Wind_Speed
1 2 4 4 2 4 3 3 3 1 2 2 2 4 7 7 10 6 2 2 0 1 8 11 10 14 17 18 15 11 7 8 8 8 5 5 6 7 7 6 5 5 5 4 2 1 1 1 2 2 5 5 6 5 5 5 6 5 6 5 7 7 6 9 9 8 8 7 5 5 8 10 8 9 10 11 10 9 10 12 12 12 11 11 11 10
0 2 7 3 3 4 5 3 2 1 0 1 3 4 7 4 9 5 0 2 2 0 4 4 12 18 18 16 14 11 8 10 8 7 6 7 8 8 8 8 8 6 2 3 3 2 3 3 2 1 1 2 4 5 5 7 8 8 8 8 7 7 7 10 11 10 10 9 9 9 7 5 7 9 11 11 9 10 9 11 11 10 10 12 11 11
3 7 1 4 4 5 4 3 2 0 1 2 3 4 4 7 4 4 3 2 1 0 9 4 8 17 20 18 15 13 9 7 6 6 6 8 9 7 7 5 3 0 1 2 2 4 5 6 5 4 4 5 5 5 6 9 8 7 8 8 8 7 8 9 11 12 11 9 9 10 8 10 5 2 7 11 11 10 10 9 9 10 10 10 10 11
4 4 4 3 4 6 1 3 1 1 2 3 3 1 6 2 4 5 0 2 2 1 9 8 12 16 19 14 14 14 8 5 4 4 5 4 5 4 5 3 0 1 1 2 4 4 4 4 5 6 6 5 5 6 4 4 5 6 6 5 7 8 6 7 10 12 11 12 11 7 8 5 3 5 6 8 10 9 9 8 7 8 10 9 10 11
6 2 3 3 2 3 3 4 2 2 3 5 6 5 6 4 1 1 4 7 8 11 6 7 10 10 10 7 4 5 4 3 2 2 4 5 5 6 5 4 3 0 2 3 3 4 4 4 4 6 6 5 6 6 6 5 5 4 4 5 6 6 7 8 10 12 11 10 8 8 9 8 9 6 6 10 9 10 10 9 8 8 10 10 9 10
6 2 2 4 3 1 2 3 5 2 2 2 5 4 0 3 4 5 6 8 6 2 1 3 8 4 1 5 3 3 3 4 4 5 7 6 8 9 6 1 3 4 4 4 4 4 4 3 2 4 5 5 6 7 7 5 4 4 5 5 5 7 8 9 11 12 10 11 12 11 11 9 7 8 8 11 15 12 12 12 7 5 6 9 8 8
1 1 3 4 4 3 2 2 2 5 2 2 1 2 4 3 2 3 5 6 6 4 1 1 0 9 5 9 10 4 5 8 5 8 8 7 5 1 3 4 3 4 4 4 3 4 5 5 4 4 6 7 7 7 6 6 6 6 7 6 6 7 9 9 11 12 11 11 12 15 14 13 11 11 7 5 7 13 12 10 10 8 5 6 8 8
4 3 2 1 4 3 3 3 5 7 3 3 1 1 2 2 3 3 2 1 6 4 10 6 6 4 9 9 9 7 7 4 4 5 4 1 1 4 4 4 4 4 4 4 4 5 5 6 6 7 7 7 8 7 7 6 6 7 7 7 7 6 9 11 10 11 13 13 12 12 13 12 11 12 12 9 8 6 9 12 11 8 6 6 5 7
3 4 4 4 2 3 5 2 4 7 4 1 1 4 1 0 1 0 1 3 4 4 8 2 5 0 6 8 2 4 3 4 4 1 0 1 3 3 2 2 3 4 4 4 4 5 5 7 8 9 9 7 7 7 7 8 7 7 6 7 7 9 10 10 13 12 12 13 13 13 11 11 9 9 7 7 7 10 11 12 10 9 8 7 6 5
2 2 6 9 5 5 3 1 1 6 3 2 1 1 1 1 1 2 1 3 3 1 7 3 4 2 8 4 4 1 3 4 1 1 1 1 2 1 0 2 3 4 3 3 4 5 7 8 9 9 10 9 8 8 6 7 7 6 6 6 7 10 9 12 13 13 13 13 13 12 12 14 10 8 8 8 8 9 10 13 12 9 9 8 8 6
2 1 2 2 4 1 2 1 1 0 3 1 0 2 2 4 2 1 1 2 1 2 6 1 1 0 7 4 5 3 3 1 3 2 0 1 2 2 2 3 4 4 4 4 5 6 8 9 10 8 9 8 7 4 4 7 6 6 5 5 6 8 9 13 15 14 13 12 12 11 12 13 13 13 12 10 8 9 10 12 12 11 9 7 9 8
2 2 1 2 4 1 1 3 1 2 2 2 0 1 5 1 3 1 0 1 1 6 1 3 1 3 1 8 6 4 5 3 1 1 2 2 1 2 2 3 3 2 4 4 4 6 7 9 9 9 10 7 7 4 5 4 4 4 4 4 6 8 10 11 13 13 12 11 10 11 13 13 13 15 13 14 14 11 13 12 12 9 9 9 9 8
2 4 2 3 3 5 2 2 2 1 2 2 1 0 2 3 0 1 1 2 4 7 0 2 3 4 10 14 10 12 7 0 2 1 1 1 2 2 1 4 1 3 4 4 4 5 7 7 9 9 9 5 4 2 2 3 3 4 4 5 8 9 8 9 11 12 12 11 10 10 12 12 12 13 14 13 12 12 13 12 12 12 11 10 10 9
2 3 1 2 2 5 3 6 2 0 4 4 2 1 0 1 1 3 4 3 1 1 3 0 2 5 8 8 12 15 10 2 1 2 1 0 0 1 2 4 1 1 3 3 3 5 6 7 9 8 6 5 3 2 0 1 2 3 6 7 10 9 9 10 9 10 10 10 10 10 10 11 11 12 12 11 12 11 9 11 13 13 12 12 12 11
3 2 5 7 3 5 6 1 1 2 8 5 1 2 2 3 1 2 2 2 3 4 1 4 1 7 0 5 1 5 5 3 4 3 3 1 2 0 1 2 2 2 3 3 3 4 5 7 9 7 5 5 5 3 4 4 5 6 7 8 10 10 8 9 10 9 9 8 9 10 10 10 10 11 10 10 10 11 10 8 9 8 8 8 8 9
6 3 1 3 1 4 5 0 1 2 2 2 2 5 4 4 0 6 1 3 3 3 5 1 6 3 6 2 2 4 4 3 4 3 2 2 2 1 2 2 1 0 2 2 3 4 6 6 6 6 5 3 4 4 4 4 4 5 6 6 7 11 10 10 8 7 8 7 7 10 11 11 10 9 9 8 7 7 8 9 10 9 8 7 8 8
2 4 1 2 2 1 2 1 1 1 3 3 4 2 3 0 2 2 2 0 1 3 8 3 7 7 5 7 5 3 4 4 3 4 2 1 0 1 3 2 1 1 1 3 3 4 6 6 6 5 6 5 4 4 4 4 5 4 5 7 7 5 5 8 10 9 8 8 7 10 11 11 11 11 11 10 11 10 8 8 8 8 8 8 8 8
5 2 1 2 2 1 1 3 1 2 0 4 1 3 1 1 3 3 2 1 2 4 5 4 9 8 4 8 0 1 1 4 5 2 1 3 1 2 4 3 2 0 0 3 2 3 3 5 5 5 5 6 6 5 6 6 5 5 5 6 7 6 5 4 7 9 8 9 8 9 10 11 11 9 9 10 11 10 9 8 8 8 8 8 8 8
4 1 2 2 3 1 2 1 1 0 1 1 1 0 1 1 0 0 2 4 2 4 5 4 8 6 5 9 1 6 5 6 5 2 1 2 2 3 5 2 2 1 1 3 2 3 3 4 5 4 3 3 5 5 5 5 5 5 5 5 6 8 6 6 4 5 5 7 7 7 9 10 10 9 9 9 10 10 10 10 9 9 8 8 8 9
1 5 0 2 1 3 0 2 5 1 1 1 0 1 0 1 2 4 3 2 1 6 4 4 1 10 5 6 8 7 9 6 5 2 5 4 4 4 5 3 3 2 1 4 1 2 3 3 3 4 4 4 4 5 5 5 5 6 5 6 6 6 6 6 8 7 7 6 7 7 7 7 8 9 10 10 11 10 10 10 10 10 10 9 8 9
2 2 4 1 3 2 2 7 8 11 8 2 1 1 0 1 1 1 1 3 3 2 2 4 9 7 3 3 4 7 8 8 5 5 6 5 5 5 6 3 4 2 2 3 3 3 2 2 2 2 3 2 2 4 4 4 5 5 5 6 6 7 6 6 5 7 7 7 7 8 9 8 8 9 9 10 10 10 10 9 9 9 9 9 9 10
3 4 6 4 3 5 5 1 0 3 6 10 11 8 11 9 3 2 7 2 0 2 4 1 10 13 10 3 7 5 7 8 7 5 6 5 6 5 5 4 4 4 4 2 3 3 3 2 2 1 2 2 2 4 4 4 4 5 5 5 6 6 6 6 6 6 7 7 8 8 8 9 8 9 9 10 10 10 10 9 9 9 10 9 9 10
2 2 5 4 6 6 1 0 1 0 0 0 4 5 9 4 4 3 2 4 1 2 2 0 2 17 3 2 3 5 7 7 6 5 6 5 6 5 5 4 5 5 3 3 3 4 3 3 2 2 2 3 3 3 4 3 3 4 4 5 5 7 7 6 6 6 7 8 8 9 9 9 9 9 10 10 9 10 9 9 9 9 10 9 9 8
2 2 2 1 4 1 1 0 1 1 1 0 3 2 3 8 9 6 3 3 4 2 2 1 2 15 1 1 4 6 6 5 5 5 6 5 5 5 5 5 6 5 4 4 3 4 4 4 3 3 3 3 2 2 3 4 4 4 4 4 5 5 7 6 6 7 7 8 9 9 9 9 10 10 10 10 9 11 10 9 9 8 9 9 9 10
4 5 6 3 1 1 1 1 1 1 1 3 2 5 3 3 3 2 3 1 0 8 8 7 10 14 0 0 4 4 5 4 5 6 5 5 5 5 5 5 5 6 5 5 5 4 6 5 5 3 4 3 2 2 3 4 4 4 4 5 5 6 6 6 6 7 7 8 10 9 9 10 10 10 10 10 9 11 10 9 9 8 9 9 9 9
4 3 8 7 10 7 6 5 7 8 11 3 3 3 8 9 8 5 3 4 4 4 10 4 8 18 5 1 1 3 4 5 6 6 6 5 7 7 6 6 6 7 7 6 6 5 5 5 6 5 5 4 2 3 3 3 4 5 5 5 5 6 6 6 6 6 7 8 8 8 9 9 9 10 10 10 10 11 11 10 9 9 8 10 10 9
3 1 5 7 9 11 7 2 1 6 5 7 6 11 10 9 8 7 2 4 11 4 8 13 12 14 20 17 6 5 5 7 5 6 7 5 5 6 6 6 6 7 7 8 7 6 4 4 5 5 5 5 5 3 2 3 4 4 5 7 7 6 5 5 5 7 7 8 8 7 8 8 9 9 9 9 9 9 9 10 9 10 9 9 11 11
1 2 6 7 8 3 3 2 5 6 6 5 8 9 9 11 11 13 13 10 6 4 12 13 8 8 23 23 16 9 6 5 3 4 7 7 7 8 8 6 7 6 7 6 6 8 8 6 4 5 7 6 5 4 3 3 4 5 6 6 6 7 6 5 5 6 7 7 7 7 7 7 8 8 8 8 8 9 9 9 10 10 9 9 10 10
2 3 5 5 11 6 1 4 5 1 2 5 10 9 12 13 12 16 17 11 8 10 17 4 8 9 17 16 17 15 14 8 5 5 5 6 7 6 6 7 8 7 8 8 7 7 8 8 7 6 8 7 7 6 5 4 4 5 6 5 6 6 6 5 5 6 6 6 6 7 6 6 7 7 8 8 9 9 9 9 9 9 9 9 9 9
1 5 2 2 8 5 6 3 5 6 4 3 7 10 12 15 18 18 17 15 14 13 15 14 10 17 20 21 22 20 16 6 6 5 2 5 6 8 8 8 9 9 10 10 9 8 7 8 8 7 7 9 8 7 6 5 6 6 6 6 5 6 6 5 5 6 7 6 6 6 6 7 6 7 8 9 9 9 9 9 9 9 9 9 8 7
4 4 5 2 3 7 7 5 4 6 6 11 8 9 11 14 13 15 12 12 11 11 18 18 15 19 25 22 20 17 13 9 6 7 8 7 6 8 9 9 9 9 10 10 9 9 8 8 9 8 8 9 10 9 7 6 6 6 6 7 6 5 6 5 5 5 6 6 7 7 7 7 7 7 9 8 8 9 9 9 9 9 9 9 9 9
4 3 2 1 2 5 4 7 6 2 5 12 10 9 12 10 12 12 12 13 9 16 17 8 9 17 24 23 5 9 11 10 10 9 7 6 6 8 9 9 9 9 10 10 10 9 9 8 9 10 10 9 10 11 9 7 6 7 7 7 7 6 6 6 5 6 6 7 7 7 8 7 8 8 8 8 8 8 8 8 8 8 8 8 9 8
6 4 4 2 3 6 1 2 1 1 6 16 19 17 18 19 17 11 17 13 19 19 10 10 16 20 21 9 7 7 6 7 7 7 7 6 7 9 10 10 9 8 9 10 11 11 11 11 9 9 9 8 9 10 11 9 7 7 7 7 6 6 7 7 6 7 7 7 8 7 7 7 8 8 8 7 7 7 8 8 8 8 9 9 8 8
4 4 4 4 5 0 2 1 1 2 14 18 4 22 24 22 20 19 20 20 20 14 15 19 21 16 9 9 12 14 6 7 8 9 9 9 8 7 7 8 9 9 8 9 11 12 11 10 9 9 8 9 8 8 9 9 9 8 8 8 6 8 7 8 7 6 7 8 9 8 7 8 8 8 8 7 7 8 7 8 8 7 6 6 8 9
10 7 4 4 2 3 2 1 1 12 21 2 2 7 22 22 22 26 24 19 19 17 18 17 19 17 22 17 14 11 5 5 6 8 8 9 9 9 9 9 9 9 10 10 10 10 10 11 10 9 9 9 9 8 8 8 6 7 8 9 8 8 9 7 7 7 7 8 8 8 8 9 8 8 8 8 8 8 8 7 7 8 8 7 8 9
9 9 4 3 3 1 2 5 6 17 2 2 1 3 3 4 4 4 11 16 17 15 20 22 26 24 22 20 16 8 7 2 2 4 6 7 9 10 9 10 10 10 10 10 12 12 11 11 12 11 9 8 9 9 8 8 6 7 8 8 9 8 8 8 8 8 8 8 9 9 9 9 9 8 8 7 8 8 7 7 8 8 8 8 7 6
13 7 6 5 5 8 5 8 17 8 20 9 1 2 5 9 11 13 10 15 19 17 17 20 25 23 20 19 15 2 2 2 5 10 8 9 8 8 12 11 11 12 10 9 10 11 11 11 11 11 9 8 10 10 10 7 8 8 7 8 9 9 8 7 8 8 9 9 9 9 9 10 10 10 9 8 9 9 8 8 8 7 7 8 8 8
12 14 7 7 6 9 8 9 5 5 18 13 9 5 8 5 11 11 6 16 9 13 20 21 22 24 20 17 5 5 5 0 8 17 11 14 13 12 8 7 7 9 9 8 7 7 9 8 9 10 11 10 10 10 9 8 8 8 8 9 9 10 9 9 9 8 9 8 9 9 9 9 10 10 10 10 9 9 8 7 6 7 7 8 8 8
2 0 8 15 7 8 10 13 12 12 12 6 13 14 15 8 9 5 1 17 7 11 15 19 23 22 17 10 6 9 6 5 13 15 4 13 15 14 13 10 8 9 10 10 11 11 11 10 12 12 11 11 10 9 9 9 10 10 9 10 9 9 9 10 9 9 9 9 8 9 9 9 9 9 10 10 10 9 9 9 8 7 7 6 6 6
8 6 4 8 11 10 8 9 16 7 9 3 6 1 5 10 10 6 2 11 6 19 19 18 18 17 14 7 11 10 11 8 14 13 4 11 14 14 15 12 9 8 9 8 7 9 10 9 11 11 12 12 12 10 10 9 10 10 10 10 9 10 10 10 9 8 8 7 8 8 8 9 9 9 10 9 8 8 8 7 7 8 8 6 6 6
7 4 9 19 14 13 12 12 7 10 4 4 5 7 5 9 9 7 17 11 1 3 7 12 17 16 8 11 12 11 15 15 2 1 1 4 5 6 6 9 11 13 13 11 9 8 9 10 13 15 15 12 12 10 10 9 10 11 10 9 9 12 11 9 7 8 8 8 8 8 9 8 9 9 8 8 9 8 7 8 8 8 8 8 7 6
9 6 4 5 13 14 12 10 13 12 9 9 4 17 11 8 2 18 8 3 4 3 5 11 13 8 11 15 13 14 9 5 1 1 3 6 8 9 9 10 7 5 6 8 10 8 8 8 7 7 8 9 12 12 10 10 10 9 10 10 12 10 7 8 8 8 8 8 8 8 7 8 7 8 8 8 8 8 8 7 8 7 8 6 7 8
15 12 14 15 8 1 4 11 8 18 9 25 12 3 6 7 19 5 3 0 2 5 6 6 7 7 10 10 14 11 4 5 6 6 5 5 7 9 11 12 13 13 12 10 9 7 9 8 9 11 11 10 11 12 12 12 10 9 8 11 9 7 8 8 8 8 8 8 8 8 8 7 8 8 7 8 8 8 7 7 7 7 8 8 8 8
12 11 7 10 10 13 14 16 15 4 9 21 22 18 14 19 3 5 5 4 2 4 6 6 6 7 10 11 11 8 7 7 4 4 5 3 5 5 6 7 7 8 8 9 12 12 10 9 8 9 8 9 10 11 12 14 13 10 10 10 6 7 7 7 7 8 8 8 8 8 8 7 7 7 7 8 8 8 8 8 7 8 8 8 8 8
16 19 15 14 10 12 16 18 8 6 20 17 21 6 10 16 10 3 2 3 5 6 4 5 7 6 8 7 7 9 7 8 8 9 10 10 8 9 10 11 13 13 12 12 12 10 9 11 11 9 8 9 10 10 11 12 14 13 12 8 8 8 9 8 7 7 7 8 7 8 7 8 8 8 8 8 9 9 8 8 8 8 7 8 8 8
6 18 6 4 12 16 16 6 3 2 6 10 7 7 9 13 15 9 4 2 4 4 8 7 5 6 6 6 7 5 9 8 8 8 6 7 10 8 7 6 6 6 7 6 7 11 10 8 7 8 11 9 10 11 11 11 12 15 13 10 10 10 10 9 8 8 8 7 7 8 7 8 7 7 7 8 7 8 7 8 8 7 7 7 7 7
7 7 10 10 5 8 15 18 18 9 5 12 14 9 8 7 9 8 9 9 6 5 5 5 4 5 7 7 9 10 9 9 9 9 7 7 9 9 10 12 10 12 13 13 10 10 9 9 10 10 10 11 9 10 10 12 11 10 8 11 10 10 10 10 10 9 8 8 7 7 7 8 7 7 6 7 6 6 6 7 7 7 6 6 6 6
11 9 12 17 14 14 19 9 16 20 10 13 13 10 10 7 4 7 12 13 10 5 5 6 4 3 5 6 9 7 8 9 11 10 9 9 10 10 10 10 11 8 8 9 10 11 9 11 12 12 11 11 10 10 10 11 11 9 10 10 10 9 10 10 10 10 9 9 8 7 8 8 9 9 7 7 7 7 7 8 8 9 9 10 10 10
2 12 10 12 16 17 14 13 7 0 9 13 9 6 5 4 8 11 9 7 6 7 7 5 6 7 8 9 6 7 7 10 12 13 12 10 9 8 10 10 10 12 10 10 11 12 14 12 12 12 12 10 8 8 10 10 9 10 12 11 10 10 11 10 10 9 8 8 7 7 7 7 7 7 7 7 7 7 7 7 8 9 7 6 7 8
7 12 12 11 11 13 16 19 7 5 6 7 11 13 15 18 12 11 7 6 6 7 9 9 8 5 6 6 7 8 11 10 10 9 11 11 12 12 10 10 9 9 9 9 10 12 11 10 12 12 13 10 8 8 8 8 9 9 10 10 10 10 11 10 10 9 9 8 7 7 7 6 6 6 6 6 6 6 4 5 7 6 7 6 7 9
15 16 11 13 14 19 22 13 10 15 12 9 15 16 17 13 10 14 15 10 9 11 11 10 9 6 6 8 7 10 10 10 11 10 10 10 11 12 13 13 11 10 10 9 9 9 11 11 11 10 11 11 10 10 10 8 8 9 10 10 10 11 11 10 9 8 8 9 8 9 8 7 7 7 6 6 7 6 6 5 2 2 5 7 7 8
Wind_Direction
43 222 215 224 239 94 81 62 67 82 22 344 285 267 259 264 277 275 286 117 176 275 247 253 264 278 283 282 284 280 269 253 252 245 224 212 226 231 236 234 229 226 230 220 206 83 57 43 326 184 188 196 195 189 187 199 207 210 210 212 219 216 193 181 179 178 166 160 144 155 181 179 168 161 155 157 155 161 159 156 154 152 152 151 149 147
6 255 251 229 105 119 109 90 85 74 316 257 268 271 279 248 273 279 311 150 91 4 278 297 289 277 277 282 282 285 268 256 243 233 221 221 218 223 222 224 224 224 200 63 15 345 347 327 289 325 303 245 233 223 203 201 208 206 207 211 221 219 215 186 179 171 175 171 172 166 174 171 175 162 157 158 160 160 155 155 155 151 151 152 151 149
202 224 185 95 109 110 96 74 80 141 249 221 215 262 288 272 250 277 87 136 123 143 267 253 280 285 285 282 287 274 259 244 234 205 215 216 222 222 219 227 238 319 345 345 4 14 358 342 336 352 334 314 294 278 237 225 215 209 206 205 209 217 222 191 176 168 176 174 170 170 166 166 165 178 175 160 152 147 151 156 154 149 152 152 150 149
263 217 125 126 128 106 115 136 126 203 194 228 237 235 239 264 32 305 323 60 283 314 286 306 297 285 280 281 264 263 237 223 203 203 236 225 236 237 237 231 185 303 281 17 0 348 350 347 342 334 326 317 306 287 321 311 269 241 223 211 198 215 208 173 172 172 170 169 168 163 150 115 116 150 117 114 127 129 133 148 153 153 151 154 152 151
233 104 135 156 154 168 148 165 176 170 256 207 207 242 265 316 310 205 298 332 302 267 264 281 272 274 261 270 263 226 170 150 174 226 264 268 255 250 256 255 221 131 42 344 337 340 347 338 331 318 307 315 307 302 291 275 275 279 256 227 217 184 176 173 174 169 156 138 115 111 94 101 97 63 120 131 132 145 145 138 156 164 155 153 152 150
259 172 162 169 168 130 188 172 194 196 292 283 213 199 18 20 341 328 329 338 332 317 356 333 345 298 231 212 273 148 142 185 201 202 229 232 232 229 225 167 55 20 26 350 345 326 281 264 286 291 292 283 275 282 286 282 283 292 290 274 240 163 176 178 177 162 147 148 144 138 138 139 140 147 161 165 157 155 158 161 143 136 152 149 148 144
243 125 208 181 151 165 213 210 216 144 220 4 267 359 49 358 319 314 330 25 316 318 271 154 193 278 316 298 288 184 196 207 197 201 219 220 223 210 73 46 23 0 340 346 325 310 313 311 305 280 266 261 255 250 254 262 259 262 270 272 271 181 180 174 175 161 148 146 155 159 160 159 161 160 182 186 162 155 147 138 145 140 131 140 143 141
123 147 91 269 151 159 178 229 229 164 128 238 91 19 58 320 318 332 13 186 248 298 288 239 177 257 310 281 254 171 181 209 196 210 223 232 16 44 36 17 358 354 354 339 327 319 322 318 301 286 275 266 258 244 232 239 250 249 248 260 259 199 193 172 169 161 153 153 160 162 161 164 165 170 168 161 159 132 131 134 137 137 130 123 126 135
140 159 188 153 188 165 205 208 152 160 167 173 150 76 358 38 325 339 211 249 257 332 301 115 222 243 249 262 291 134 225 228 211 186 315 20 56 70 12 348 348 353 340 325 321 326 319 308 305 302 295 280 273 261 227 226 228 236 242 246 244 213 193 169 158 156 158 161 164 166 165 167 168 159 144 133 143 145 142 130 130 133 132 126 121 121
336 146 198 160 143 210 188 207 146 153 208 93 359 299 208 121 152 180 214 288 309 24 279 189 206 220 270 254 282 172 169 233 211 353 314 45 64 123 296 342 353 324 319 346 330 325 320 311 303 295 288 282 268 260 229 225 225 230 231 243 242 213 176 160 152 157 164 164 163 168 170 164 147 133 133 138 143 144 147 138 138 137 139 141 134 129
119 319 334 137 204 170 156 75 69 7 65 147 226 343 276 176 159 156 258 307 342 282 247 160 281 142 301 259 217 202 202 178 248 232 208 9 19 350 12 12 338 326 348 346 332 325 322 315 306 299 286 276 281 252 218 227 223 229 236 243 235 202 158 156 155 158 162 167 168 167 167 159 148 146 144 140 145 149 144 145 145 148 145 144 142 138
113 33 352 262 47 112 72 119 22 43 64 62 56 346 328 15 47 81 262 149 45 282 178 321 2 355 197 292 284 168 166 173 168 298 314 314 321 319 353 342 313 358 348 334 336 329 324 316 310 308 304 301 298 262 214 213 225 231 244 231 185 144 156 147 150 158 161 163 168 162 159 154 149 150 155 158 158 164 153 150 147 146 141 146 146 147
238 201 168 50 260 174 164 148 122 117 89 122 163 267 89 269 111 304 87 336 195 232 295 326 327 338 229 235 261 287 296 100 101 121 240 274 296 331 341 302 299 24 339 327 341 328 321 317 315 320 321 319 334 295 197 211 226 237 223 167 124 124 134 137 144 158 158 160 162 160 160 155 152 157 160 159 158 164 160 154 151 155 154 150 155 162
251 13 225 166 52 236 202 154 180 12 182 165 160 164 140 334 337 260 263 243 234 324 259 122 337 237 279 284 241 247 254 128 128 126 158 148 332 304 307 290 54 11 315 340 360 325 324 322 321 326 326 338 340 356 25 187 175 164 150 126 118 126 130 132 138 144 154 159 157 159 158 153 152 158 159 159 160 166 164 161 160 161 163 162 163 159
241 303 231 158 238 147 202 250 186 152 153 194 125 108 166 143 176 282 261 257 235 276 246 297 34 238 193 253 227 168 123 116 132 166 161 159 152 186 290 277 82 355 336 25 2 324 332 331 326 329 352 12 11 21 81 81 103 112 113 120 124 119 119 129 140 143 151 155 154 158 151 150 153 155 156 157 162 160 157 158 149 147 150 155 155 156
200 191 319 15 313 141 171 139 148 100 71 134 138 78 74 214 162 201 277 309 301 6 319 250 207 233 195 238 190 142 154 140 145 184 185 158 127 44 328 279 94 24 336 32 353 340 345 339 336 348 357 20 41 31 113 103 94 96 98 103 117 132 137 133 133 144 156 156 149 156 151 152 149 149 149 142 148 152 152 152 150 147 150 148 146 150
58 251 150 170 253 170 5 300 169 53 162 213 86 192 198 164 109 323 322 350 82 102 247 210 286 283 289 299 300 163 148 182 157 203 155 126 107 3 272 258 133 82 302 44 4 357 356 345 349 3 356 359 37 47 31 59 70 81 104 119 118 110 115 139 144 152 163 158 140 150 150 148 148 150 154 151 151 149 143 142 140 143 145 143 148 149
153 201 226 166 212 350 334 0 340 28 340 95 164 221 183 84 110 124 252 304 208 231 266 173 255 297 33 297 335 146 240 244 219 192 166 156 138 251 261 242 143 135 82 80 9 25 13 355 358 4 27 21 29 55 56 55 71 85 99 116 114 117 118 112 138 144 148 142 131 137 145 151 149 145 140 142 142 141 138 138 136 135 140 150 146 147
102 291 182 304 67 142 284 255 332 229 17 92 174 262 104 221 140 164 82 315 331 281 277 251 271 258 208 262 194 240 203 230 213 192 219 203 182 232 262 236 133 170 127 87 29 28 12 15 358 11 50 55 61 49 72 78 69 84 94 98 121 124 119 121 100 98 117 126 125 130 138 145 143 137 135 133 135 140 143 145 146 145 142 135 138 143
74 184 296 295 32 160 11 158 216 199 22 34 34 302 273 86 185 144 199 200 125 271 344 277 351 281 195 217 197 216 202 199 190 219 248 226 196 214 242 210 152 174 136 107 103 46 39 15 16 19 33 44 53 78 71 80 84 87 91 103 100 96 100 99 114 106 91 93 107 111 119 122 128 131 137 140 141 146 148 148 147 145 146 148 141 144
185 123 232 161 309 104 234 190 220 159 156 151 127 216 86 188 232 100 294 162 178 237 257 295 311 277 220 209 185 206 185 181 177 214 239 222 203 201 234 203 166 169 132 137 128 104 57 36 9 38 64 56 48 85 93 87 95 103 103 108 115 121 123 117 108 113 113 107 104 113 124 126 126 128 133 135 141 142 145 143 145 147 144 138 147 149
161 177 198 131 168 224 232 16 169 162 181 171 167 194 176 143 133 121 265 53 103 134 243 292 274 278 276 221 238 198 171 158 178 188 227 211 196 198 233 191 173 165 139 154 136 121 114 61 9 64 97 98 91 85 88 102 107 113 122 129 132 130 130 132 129 119 118 119 127 127 126 126 123 129 134 136 139 140 143 144 144 142 142 149 149 154
158 167 117 188 201 195 163 342 328 5 106 187 168 203 160 177 140 137 181 236 43 249 70 186 43 272 251 223 151 145 150 164 180 181 224 207 196 201 229 215 166 155 156 158 158 139 131 124 119 40 50 87 80 91 100 106 109 114 122 127 136 139 138 137 135 127 126 130 131 132 132 131 134 135 139 140 142 142 144 143 137 140 142 144 148 152
80 123 154 140 46 9 225 215 216 1 340 280 278 239 155 187 192 180 156 163 155 149 138 170 198 264 311 219 130 132 152 172 172 194 216 207 199 192 218 231 164 155 176 163 155 152 141 142 128 147 135 138 121 121 124 120 126 129 129 138 143 137 136 137 137 135 134 137 138 138 138 139 139 141 144 146 147 146 146 143 142 142 141 143 146 154
141 238 138 165 161 17 351 351 309 337 341 232 195 194 200 85 82 132 122 166 316 203 180 134 247 270 51 27 84 106 144 168 200 221 201 195 202 195 211 224 177 161 165 168 169 182 157 160 153 157 142 126 144 132 146 146 144 147 142 146 144 139 143 141 143 142 140 142 144 148 147 146 147 149 152 150 149 149 148 148 146 149 148 147 151 154
206 197 159 184 191 196 191 205 217 217 212 197 247 174 192 160 144 127 192 198 190 236 167 203 245 258 259 243 196 176 195 235 231 212 217 186 184 196 202 208 187 162 167 178 172 178 180 169 152 154 139 137 149 166 153 154 158 156 150 139 128 141 147 148 149 144 144 146 147 151 149 147 149 154 156 155 152 154 156 154 154 153 150 153 153 153
202 305 222 204 195 218 209 175 292 101 91 176 216 177 193 191 181 177 118 148 207 173 189 227 230 284 295 272 236 231 208 225 230 200 206 203 197 197 196 192 194 174 170 179 172 167 169 168 157 161 153 147 164 152 160 160 170 155 145 135 138 145 154 155 157 151 148 149 147 150 150 152 156 155 156 157 154 151 154 157 157 157 157 161 160 161
7 265 253 243 246 230 140 158 187 151 153 197 151 199 184 178 182 185 195 219 127 117 258 244 230 248 262 274 283 269 228 237 245 194 205 209 190 191 192 187 192 173 164 175 173 167 171 178 188 162 159 153 154 158 165 181 170 154 142 145 148 152 158 165 164 147 145 144 148 150 150 151 153 153 153 152 152 152 155 156 159 162 158 159 164 166
172 208 265 184 258 250 164 139 162 181 189 176 183 172 183 187 181 196 215 216 148 180 239 245 158 214 257 268 273 280 277 266 238 234 223 193 172 177 177 182 189 185 170 174 185 176 170 173 179 183 160 158 161 167 172 172 166 138 138 144 148 151 155 160 148 144 141 141 145 149 148 147 150 150 143 149 153 155 158 160 159 157 158 164 165 169
65 249 206 199 263 287 276 212 182 188 220 215 207 195 189 184 202 199 213 213 210 229 240 261 264 263 267 270 273 273 280 289 280 265 217 177 189 182 179 188 191 189 180 181 184 184 180 173 171 183 169 159 168 171 167 175 160 152 148 150 146 151 152 151 154 140 142 143 145 148 147 148 150 148 150 157 159 159 156 156 157 157 161 168 166 160
129 271 107 135 251 256 250 249 209 213 216 241 218 211 200 204 207 206 214 228 230 267 264 261 270 280 271 257 260 277 288 285 281 262 240 226 203 189 183 188 196 191 187 181 180 182 182 175 171 175 182 173 170 173 173 175 162 153 150 151 154 154 145 147 148 142 144 149 147 150 150 151 154 150 156 159 157 157 158 156 157 161 163 166 166 163
135 243 68 94 216 265 195 224 241 352 275 252 230 211 218 196 209 203 212 215 182 220 238 257 273 256 262 269 273 246 253 251 248 247 242 225 197 186 181 187 194 197 186 181 178 178 180 181 177 177 182 182 175 170 175 175 168 159 154 153 160 157 152 150 156 155 153 148 149 147 149 152 152 153 154 155 158 155 152 149 155 160 163 165 163 158
178 158 163 177 206 244 306 201 144 258 328 279 231 207 219 217 208 205 222 209 207 210 218 221 237 238 247 275 294 258 207 229 228 224 230 220 197 188 184 185 194 198 192 180 176 179 183 183 184 179 174 180 185 177 179 174 173 173 161 156 166 146 158 159 163 163 158 151 148 152 152 152 154 155 157 158 153 150 148 154 159 162 169 172 164 151
160 179 173 161 195 183 288 332 153 35 258 251 119 182 201 207 201 209 222 214 222 178 211 215 233 251 266 257 239 257 227 221 211 221 201 191 190 197 195 181 190 197 193 184 179 181 182 177 174 176 177 179 184 179 175 177 181 176 161 160 151 149 162 162 171 166 163 155 157 156 154 154 155 157 160 161 156 152 152 159 165 159 159 157 156 160
179 184 209 169 196 209 123 109 111 234 245 326 336 210 190 203 196 206 222 216 226 211 230 252 258 257 252 248 249 251 233 241 212 212 207 198 179 187 192 188 185 189 189 184 180 180 179 174 169 169 174 178 175 172 171 177 172 160 157 161 159 160 164 169 172 171 167 161 159 155 154 155 156 156 162 163 156 155 158 161 161 165 167 166 168 166
169 173 168 236 179 51 98 183 217 240 339 10 358 4 79 151 185 211 267 255 244 214 215 231 244 246 250 256 254 245 253 227 316 269 226 206 182 182 184 192 187 181 188 189 182 181 176 173 170 168 174 169 161 165 174 178 165 156 160 157 158 164 171 170 174 173 170 164 160 162 160 158 158 156 161 156 153 158 161 164 169 172 166 163 166 164
161 168 173 218 170 211 174 198 235 311 315 241 35 238 183 163 165 174 219 245 232 216 209 224 242 247 250 251 253 225 89 46 309 265 219 214 211 196 186 189 178 183 186 190 179 180 178 168 162 161 156 161 164 165 174 169 162 159 155 159 164 168 174 177 179 174 173 170 165 166 164 162 162 160 163 159 158 165 167 167 170 171 164 167 172 171
183 172 182 176 232 194 210 247 259 262 247 261 174 217 196 181 165 184 182 266 226 207 202 213 231 242 240 248 221 137 89 31 286 267 220 201 201 202 200 188 177 170 174 179 173 166 165 162 153 152 152 155 163 166 164 166 166 161 164 168 171 173 177 184 185 174 172 175 170 169 167 166 165 163 164 162 168 170 169 169 167 169 168 173 171 172
337 177 186 194 211 158 214 224 235 238 244 129 185 187 189 166 142 110 51 270 236 178 201 203 222 235 231 222 150 131 109 208 247 256 184 191 199 193 185 190 182 169 166 166 169 168 166 166 157 155 149 150 162 165 162 163 166 170 175 174 172 175 179 186 183 175 176 177 173 170 169 170 169 169 168 169 172 172 170 173 171 162 165 168 167 169
212 195 156 224 216 211 196 222 238 217 260 252 155 136 155 137 116 84 284 270 239 185 201 198 216 228 225 161 148 157 171 212 238 254 193 193 191 187 179 176 170 161 155 156 165 167 161 149 135 147 156 164 171 161 163 162 169 178 180 179 171 176 188 186 180 174 170 173 173 170 173 175 174 174 173 172 168 168 170 164 158 160 165 168 168 169
191 232 205 209 210 212 202 239 269 265 221 159 166 130 188 135 122 119 232 219 281 170 193 179 210 215 171 150 161 181 211 208 198 269 123 106 116 151 172 169 171 162 153 154 160 150 152 161 163 167 169 169 161 160 164 165 173 182 185 182 183 188 188 178 170 172 171 173 173 174 177 178 179 175 174 170 168 164 160 166 169 167 169 168 167 164
213 187 238 227 223 212 218 235 246 276 228 152 196 153 172 105 151 223 245 116 144 196 204 185 199 196 158 175 180 208 215 183 146 74 125 165 165 163 153 148 135 129 130 140 147 153 159 163 165 160 152 157 157 158 166 171 181 185 182 186 198 194 171 165 172 170 170 173 173 173 176 178 177 173 171 166 162 165 172 174 169 169 166 162 163 166
184 171 198 202 200 220 197 222 245 249 241 138 147 135 263 164 235 209 90 7 128 191 171 203 200 199 168 191 201 201 144 158 160 182 179 167 148 155 154 152 158 160 157 149 155 168 160 166 171 174 172 164 159 158 165 171 182 186 186 198 195 167 173 178 174 174 173 173 170 170 175 176 172 174 169 168 167 165 169 167 166 167 165 166 170 172
155 195 194 214 181 194 195 208 218 234 101 151 149 181 200 210 204 107 165 224 269 154 191 191 223 196 191 187 190 194 179 161 180 165 167 166 172 159 151 154 152 152 157 168 163 164 165 172 176 172 173 170 164 162 164 171 178 183 190 198 168 159 166 173 177 176 176 176 173 166 172 172 171 172 166 164 163 167 169 173 172 171 174 174 176 181
181 205 186 197 185 197 209 222 212 155 168 179 177 187 186 219 233 175 128 181 181 242 182 179 216 207 198 193 180 177 172 191 179 176 165 185 174 175 171 175 171 169 167 167 173 168 166 172 176 173 173 175 170 168 172 175 177 180 189 181 160 168 168 171 171 174 179 178 173 167 167 166 170 175 170 170 168 172 175 179 174 176 179 172 181 185
191 207 187 193 222 230 257 261 90 203 209 219 236 184 188 209 224 217 228 238 234 196 174 187 191 190 194 173 155 195 194 180 164 184 193 177 179 189 180 158 163 159 157 154 160 173 171 163 170 175 175 181 176 172 175 181 179 186 189 165 166 168 168 168 171 177 180 176 172 172 164 168 175 176 175 171 176 178 179 177 179 177 174 178 185 186
231 194 198 224 189 162 242 225 238 225 190 199 219 232 213 212 211 204 232 240 234 177 189 209 175 174 178 178 189 190 191 174 177 185 186 182 184 184 180 181 178 173 169 178 180 162 166 160 168 183 185 183 186 177 180 180 191 188 162 170 165 163 164 169 174 176 175 175 172 168 167 172 176 175 175 172 174 176 172 173 172 171 173 179 180 182
233 176 201 217 219 209 240 205 216 224 192 204 206 216 231 233 215 211 216 227 227 194 174 191 173 192 156 185 204 186 191 182 176 183 186 191 190 185 189 187 181 174 186 172 161 170 169 171 175 181 187 193 190 183 182 187 189 174 168 170 165 158 157 166 173 176 181 176 170 173 174 179 176 174 176 179 176 177 180 179 177 180 185 185 185 184
152 132 217 200 222 234 257 257 225 312 203 210 220 255 295 276 241 240 230 228 216 207 216 196 177 186 181 207 180 183 176 201 191 186 182 188 189 190 193 191 188 185 169 165 170 170 180 182 181 183 186 197 189 187 184 191 185 174 172 170 166 160 160 167 170 172 172 172 169 175 175 175 176 180 177 176 182 191 188 183 188 193 200 203 187 190
132 200 202 206 234 239 229 234 125 231 217 199 211 219 226 231 225 238 236 222 211 213 218 215 227 199 193 195 182 184 198 201 197 180 190 190 192 191 188 188 188 181 185 181 168 176 179 184 185 183 188 191 177 184 191 190 183 180 177 167 166 163 166 166 166 168 172 170 173 170 167 170 173 175 174 173 177 180 195 197 187 193 191 196 203 203
209 212 186 207 208 230 232 226 176 220 236 200 201 212 225 234 233 240 239 223 221 223 218 211 217 211 223 228 197 190 205 196 198 185 189 193 200 194 188 180 178 185 186 174 162 183 186 189 189 188 190 189 177 179 185 187 185 180 179 172 169 168 169 163 165 171 170 170 177 175 171 172 172 176 177 176 174 175 176 165 135 149 181 181 185 192